Regional Weather Roundup
Issued by NWS

Home | Current Version | Previous Version | Graphics & Text | Print | Product List | Glossary On
Versions: 1 2 3 4 5 6 7 8 9 10 11 12 13 14 15 16 17 18 19 20 21 22 23 24 25 26 27 28 29 30 31 32 33 34 35 36 37 38 39 40 41 42 43 44 45 46 47 48 49 50
000
ASUS43 KBIS 280110
RWRND

NORTH DAKOTA REGIONAL WEATHER ROUNDUP
NATIONAL WEATHER SERVICE BISMARCK ND
700 PM CST SAT DEC 27 2014

NOTE: "FAIR" INDICATES FEW OR NO CLOUDS BELOW 12,000 FEET WITH NO
SIGNIFICANT WEATHER AND/OR OBSTRUCTIONS TO VISIBILITY.


NDZ001>003-009>011-017-280200-
NORTHWEST NORTH DAKOTA

CITY           SKY/WX    TMP DP  RH WIND       PRES   REMARKS
WILLISTON      LGT SNOW  23  18  81 N3        30.00S
MINOT          CLOUDY    21  14  74 NW7       30.00R WCI  12
MINOT AFB      CLOUDY    19  18  96 N12       30.01R WCI   7
$$

NDZ018>021-031>035-040>046-280200-
SOUTHWEST NORTH DAKOTA

CITY           SKY/WX    TMP DP  RH WIND       PRES   REMARKS
BISMARCK       CLEAR     19  15  84 W3        30.02S
DICKINSON      CLOUDY    22  14  71 W10       29.96S WCI  11
GARRISON         N/A     19  14  81 NW12      30.00R WCI   7
HETTINGER ARPT CLOUDY    22  15  75 W7        30.01S WCI  13
$$

NDZ004>008-012>016-024-026-027-054-280200-
NORTHEAST NORTH DAKOTA

CITY           SKY/WX    TMP DP  RH WIND       PRES   REMARKS
GRAND FORKS    CLOUDY    19  17  92 CALM      30.04R
GRND FRKS AFB  FLURRIES  19  19 100 E2        30.02F
DEVILS LAKE    CLOUDY    21  16  79 NW7       29.98R WCI  13
$$

NDZ022-023-025-028>030-036>039-047>053-280200-
SOUTHEAST NORTH DAKOTA

CITY           SKY/WX    TMP DP  RH WIND       PRES   REMARKS
FARGO          CLOUDY    22  17  81 W6        30.03S WCI  14
JAMESTOWN      CLOUDY    23  18  81 W6        29.99R WCI  16
$$




USA.gov is the U.S. government's official web portal to all federal, state and local government web resources and services.